Hourly Weather Kozino

Today, 22 October, Thursday

Time Temperature Precipitation Wind Pressure Humidity
00:00 +3°C° 0 mm 2 mps 749 mmHg 97%
01:00 +3°C° 0 mm 2 mps 749 mmHg 97%
02:00 +3°C° 0 mm 2 mps 749 mmHg 97%
03:00 +3°C° 0 mm 2 mps 749 mmHg 97%
04:00 +3°C° 0 mm 2 mps 749 mmHg 97%
05:00 +3°C° 0 mm 2 mps 748 mmHg 97%
06:00 +3°C° 0 mm 2 mps 748 mmHg 96%
07:00 +3°C° 0 mm 2 mps 748 mmHg 96%
08:00 +3°C° 0 mm 3 mps 748 mmHg 95%
09:00 +3°C° 0 mm 3 mps 747 mmHg 93%
10:00 +4°C° 0 mm 3 mps 747 mmHg 91%
11:00 +5°C° 0 mm 4 mps 747 mmHg 89%
12:00 +5°C° 0.2 mm 4 mps 746 mmHg 89%
13:00 +5°C° 0.2 mm 4 mps 746 mmHg 89%
14:00 +5°C° 0.2 mm 4 mps 745 mmHg 90%
15:00 +5°C° 0.8 mm 4 mps 744 mmHg 91%
16:00 +5°C° 0.8 mm 5 mps 743 mmHg 92%
17:00 +5°C° 0.8 mm 5 mps 742 mmHg 93%
18:00 +6°C° 0.5 mm 4 mps 741 mmHg 94%
19:00 +6°C° 0.5 mm 4 mps 741 mmHg 94%
20:00 +6°C° 0.5 mm 4 mps 740 mmHg 94%
21:00 +6°C° 1 mm 4 mps 739 mmHg 94%
22:00 +7°C° 1 mm 4 mps 738 mmHg 95%
23:00 +7°C° 1 mm 4 mps 737 mmHg 96%

Tomorrow, 23 October, Friday

Time Temperature Precipitation Wind Pressure Humidity
00:00 +8°C° 0.7 mm 4 mps 737 mmHg 94%
01:00 +9°C° 0.7 mm 5 mps 737 mmHg 93%
02:00 +10°C° 0.7 mm 5 mps 737 mmHg 91%
03:00 +10°C° 0.1 mm 5 mps 737 mmHg 88%
04:00 +10°C° 0.1 mm 6 mps 738 mmHg 85%
05:00 +10°C° 0.1 mm 6 mps 738 mmHg 82%
06:00 +10°C° 0 mm 6 mps 738 mmHg 83%
07:00 +10°C° 0 mm 5 mps 738 mmHg 84%
08:00 +11°C° 0 mm 4 mps 739 mmHg 85%
09:00 +10°C° 0 mm 5 mps 739 mmHg 81%
10:00 +10°C° 0 mm 5 mps 739 mmHg 78%
11:00 +11°C° 0 mm 6 mps 740 mmHg 75%
12:00 +12°C° 0 mm 5 mps 739 mmHg 76%
13:00 +12°C° 0 mm 5 mps 739 mmHg 77%
14:00 +11°C° 0 mm 4 mps 739 mmHg 78%
15:00 +11°C° 0.1 mm 4 mps 739 mmHg 82%
16:00 +11°C° 0.1 mm 4 mps 738 mmHg 86%
17:00 +10°C° 0.1 mm 4 mps 738 mmHg 89%
18:00 +10°C° 0.1 mm 4 mps 738 mmHg 90%
19:00 +10°C° 0.1 mm 3 mps 737 mmHg 91%
20:00 +9°C° 0.1 mm 3 mps 737 mmHg 92%
21:00 +8°C° 0 mm 4 mps 737 mmHg 90%
22:00 +8°C° 0 mm 4 mps 737 mmHg 87%
23:00 +8°C° 0 mm 5 mps 738 mmHg 84%

Day after tomorrow, 24 October, Saturday

Time Temperature Precipitation Wind Pressure Humidity
00:00 +8°C° 0 mm 5 mps 738 mmHg 83%
01:00 +8°C° 0 mm 4 mps 739 mmHg 83%
02:00 +8°C° 0 mm 4 mps 739 mmHg 82%
03:00 +8°C° 0 mm 4 mps 740 mmHg 82%
04:00 +7°C° 0 mm 4 mps 740 mmHg 83%
05:00 +8°C° 0 mm 3 mps 740 mmHg 83%
06:00 +8°C° 0 mm 3 mps 741 mmHg 85%
07:00 +8°C° 0 mm 3 mps 741 mmHg 86%
08:00 +7°C° 0 mm 3 mps 742 mmHg 87%
09:00 +8°C° 0 mm 3 mps 742 mmHg 83%
10:00 +7°C° 0 mm 4 mps 742 mmHg 79%
11:00 +8°C° 0 mm 4 mps 743 mmHg 75%
12:00 +8°C° 0 mm 4 mps 743 mmHg 74%
13:00 +9°C° 0 mm 3 mps 743 mmHg 74%
14:00 +9°C° 0 mm 3 mps 743 mmHg 74%
15:00 +9°C° 0.1 mm 2 mps 743 mmHg 78%
16:00 +8°C° 0.1 mm 2 mps 743 mmHg 82%
17:00 +9°C° 0.1 mm 1 mps 743 mmHg 86%
18:00 +8°C° 0.1 mm 1 mps 743 mmHg 88%
19:00 +8°C° 0.1 mm 1 mps 743 mmHg 89%
20:00 +7°C° 0.1 mm 2 mps 744 mmHg 91%
21:00 +8°C° 0 mm 1 mps 744 mmHg 92%
22:00 +7°C° 0 mm 1 mps 743 mmHg 93%
23:00 +7°C° 0 mm 1 mps 743 mmHg 94%

, 25 October, Sunday

Time Temperature Precipitation Wind Pressure Humidity
00:00 +7°C° 0 mm 1 mps 743 mmHg 94%
01:00 +7°C° 0 mm 1 mps 743 mmHg 93%
02:00 +6°C° 0 mm 2 mps 743 mmHg 93%
03:00 +6°C° 0.1 mm 2 mps 743 mmHg 93%
04:00 +6°C° 0.1 mm 2 mps 743 mmHg 93%
05:00 +6°C° 0.1 mm 2 mps 743 mmHg 94%
06:00 +6°C° 0.1 mm 2 mps 742 mmHg 93%
07:00 +6°C° 0.1 mm 2 mps 742 mmHg 92%
08:00 +7°C° 0.1 mm 3 mps 742 mmHg 91%
09:00 +7°C° 0.2 mm 3 mps 743 mmHg 90%
10:00 +8°C° 0.2 mm 3 mps 743 mmHg 88%
11:00 +8°C° 0.2 mm 4 mps 744 mmHg 86%
12:00 +8°C° 0.1 mm 4 mps 745 mmHg 85%
13:00 +8°C° 0.1 mm 4 mps 745 mmHg 83%
14:00 +8°C° 0.1 mm 5 mps 746 mmHg 82%
15:00 +7°C° 0 mm 4 mps 747 mmHg 82%
16:00 +7°C° 0 mm 3 mps 747 mmHg 83%
17:00 +7°C° 0 mm 3 mps 748 mmHg 84%
18:00 +5°C° 0 mm 3 mps 749 mmHg 87%
19:00 +5°C° 0 mm 2 mps 749 mmHg 90%
20:00 +5°C° 0 mm 2 mps 750 mmHg 93%
21:00 +4°C° 0 mm 2 mps 751 mmHg 93%
22:00 +4°C° 0 mm 2 mps 751 mmHg 94%
23:00 +4°C° 0 mm 1 mps 752 mmHg 95%

25 October, Sunday

Time Temperature Precipitation Wind Pressure Humidity
00:00 +7°C° 0 mm 1 mps 743 mmHg 94%
01:00 +7°C° 0 mm 1 mps 743 mmHg 93%
02:00 +6°C° 0 mm 2 mps 743 mmHg 93%
03:00 +6°C° 0.1 mm 2 mps 743 mmHg 93%
04:00 +6°C° 0.1 mm 2 mps 743 mmHg 93%
05:00 +6°C° 0.1 mm 2 mps 743 mmHg 94%
06:00 +6°C° 0.1 mm 2 mps 742 mmHg 93%
07:00 +6°C° 0.1 mm 2 mps 742 mmHg 92%
08:00 +7°C° 0.1 mm 3 mps 742 mmHg 91%
09:00 +7°C° 0.2 mm 3 mps 743 mmHg 90%
10:00 +8°C° 0.2 mm 3 mps 743 mmHg 88%
11:00 +8°C° 0.2 mm 4 mps 744 mmHg 86%
12:00 +8°C° 0.1 mm 4 mps 745 mmHg 85%
13:00 +8°C° 0.1 mm 4 mps 745 mmHg 83%
14:00 +8°C° 0.1 mm 5 mps 746 mmHg 82%
15:00 +7°C° 0 mm 4 mps 747 mmHg 82%
16:00 +7°C° 0 mm 3 mps 747 mmHg 83%
17:00 +7°C° 0 mm 3 mps 748 mmHg 84%
18:00 +5°C° 0 mm 3 mps 749 mmHg 87%
19:00 +5°C° 0 mm 2 mps 749 mmHg 90%
20:00 +5°C° 0 mm 2 mps 750 mmHg 93%
21:00 +4°C° 0 mm 2 mps 751 mmHg 93%
22:00 +4°C° 0 mm 2 mps 751 mmHg 94%
23:00 +4°C° 0 mm 1 mps 752 mmHg 95%

26 October, Monday

Time Temperature Precipitation Wind Pressure Humidity
00:00 +4°C° 0 mm 1 mps 752 mmHg 95%
01:00 +4°C° 0 mm 1 mps 752 mmHg 95%
02:00 +3°C° 0 mm 1 mps 753 mmHg 95%
03:00 +3°C° 0 mm 1 mps 753 mmHg 95%
04:00 +3°C° 0 mm 1 mps 753 mmHg 95%
05:00 +3°C° 0 mm 1 mps 754 mmHg 94%
06:00 +4°C° 0 mm 1 mps 754 mmHg 94%
07:00 +4°C° 0 mm 1 mps 754 mmHg 93%
08:00 +5°C° 0 mm 1 mps 754 mmHg 92%
09:00 +6°C° 0 mm 1 mps 755 mmHg 89%
10:00 +7°C° 0 mm 1 mps 755 mmHg 85%
11:00 +7°C° 0 mm 2 mps 755 mmHg 82%
12:00 +8°C° 0 mm 2 mps 755 mmHg 81%
13:00 +8°C° 0 mm 2 mps 755 mmHg 80%
14:00 +9°C° 0 mm 2 mps 755 mmHg 79%
15:00 +8°C° 0 mm 2 mps 755 mmHg 83%
16:00 +7°C° 0 mm 2 mps 755 mmHg 87%
17:00 +7°C° 0 mm 1 mps 755 mmHg 91%
18:00 +6°C° 0 mm 2 mps 756 mmHg 92%
19:00 +5°C° 0 mm 2 mps 756 mmHg 93%
20:00 +5°C° 0 mm 2 mps 756 mmHg 94%
21:00 +4°C° 0 mm 2 mps 756 mmHg 94%
22:00 +4°C° 0 mm 2 mps 756 mmHg 94%
23:00 +4°C° 0 mm 2 mps 756 mmHg 94%

27 October, Tuesday

Time Temperature Precipitation Wind Pressure Humidity
00:00 +4°C° 0 mm 2 mps 756 mmHg 94%
01:00 +3°C° 0 mm 2 mps 756 mmHg 94%
02:00 +3°C° 0 mm 2 mps 756 mmHg 94%
03:00 +3°C° 0 mm 2 mps 756 mmHg 94%
04:00 +3°C° 0 mm 2 mps 756 mmHg 94%
05:00 +3°C° 0 mm 2 mps 756 mmHg 94%
06:00 +2°C° 0 mm 3 mps 756 mmHg 93%
07:00 +2°C° 0 mm 3 mps 756 mmHg 92%
08:00 +2°C° 0 mm 3 mps 756 mmHg 91%
09:00 +4°C° 0 mm 3 mps 756 mmHg 86%
10:00 +5°C° 0 mm 4 mps 755 mmHg 82%
11:00 +6°C° 0 mm 4 mps 755 mmHg 77%
12:00 +6°C° 0 mm 4 mps 755 mmHg 76%
13:00 +6°C° 0 mm 4 mps 755 mmHg 75%
14:00 +7°C° 0 mm 4 mps 755 mmHg 75%
15:00 +6°C° 0 mm 4 mps 754 mmHg 77%
16:00 +6°C° 0 mm 4 mps 754 mmHg 79%
17:00 +7°C° 0 mm 3 mps 754 mmHg 80%
18:00 +6°C° 0 mm 4 mps 754 mmHg 82%
19:00 +6°C° 0 mm 4 mps 753 mmHg 83%
20:00 +6°C° 0 mm 4 mps 753 mmHg 84%
21:00 +6°C° 0.1 mm 4 mps 753 mmHg 84%
22:00 +6°C° 0.1 mm 4 mps 753 mmHg 85%
23:00 +6°C° 0.1 mm 4 mps 753 mmHg 85%
Show more